GEBA-online

Gesellschaft der Bassisten in Deutschland

www.GEBA-online.de

Gesellschaft der Bassisten in Deutschland



• • • Forum

Auch in diesem Forum gibt es Regeln: Forum-Regeln

SucheTagcloud
Freitextsuche
  
Kategoriensuche

Seite: 1 - 2 - 3 - 4 - 5 - 6 - 7 - 8 - 9 - 10 - 11 - 12 - 13 - 14 - 15 - 16 - 17 - 18 - 19 - 20 - 21 - 22 - 23 - 24 - 25 - 26 - 27 - 28 - 29 - 30 - 31 - 32 - 33 - 34 - 35 - 36 - 37 - 38 - 39 - 40 - 41 - 42 - 43 | Einen Beitrag ins Forum stellen

Beitrag Autor Letzter Beitrag Datum ReaktionenAufrufe
Schnarren beim Wechselbass Ste-Fan27.05.2020, 20:54:52 26.05.2020, 21:04:10 7239
WARNUNG!! BETRÜGER!! Rapp27.05.2020, 15:48:48 23.05.2020, 10:56:17 1267
Spiccato wulfcam25.05.2020, 20:02:06 15.08.2019, 08:18:50 294177
Scooping Ste-Fan25.05.2020, 11:48:54 25.05.2020, 11:48:54 0152
Slap-Saiten für Klassiker Ste-Fan24.05.2020, 00:27:25 07.05.2020, 00:27:36 6526
Was ist das für ein Bass? Ste-Fan24.05.2020, 00:11:34 20.05.2020, 18:03:24 4407
Warnung! Betrüger! bassfranky23.05.2020, 10:50:41 26.09.2017, 12:35:49 113514
Der Simandl-Eklat Ste-Fan21.05.2020, 00:23:30 23.04.2020, 19:21:14 61139
Audio Sprockets Tone Dexter ChristophKammer19.05.2020, 16:57:58 13.01.2018, 23:42:09 9418359
Composit (GFK) Bass? Fragmentalis19.05.2020, 16:04:12 06.06.2015, 09:15:20 2324936
Unterricht in Neuss Jörn17.05.2020, 11:11:14 02.10.2015, 18:22:26 419649
Jammen mit der WDR Bigband jlohse16.05.2020, 21:24:57 13.05.2020, 19:49:38 7466
Coronabass-Sammlung (YouTube-Playlist) kontrafuss16.05.2020, 17:30:01 14.05.2020, 22:02:22 2301
Verstärker WatermelonMan16.05.2020, 14:12:49 16.05.2020, 14:12:49 0141
Feinstimmer Bassta716.05.2020, 13:44:11 15.05.2020, 16:26:36 7285
Halsdesinfektion Ste-Fan12.05.2020, 18:01:25 06.05.2020, 14:47:43 16930
Kontrabassistinnen und Kontrabassisten Ste-Fan07.05.2020, 20:33:52 05.05.2020, 20:43:29 6577
wie lange halten umwickelte Saiten? doghouse07.05.2020, 11:43:14 29.04.2020, 16:34:41 4685
Umbau: Abnehmbarer Hals Baumkruste29.04.2020, 18:37:49 21.04.2020, 14:47:58 141267
Stimmstockposition verändern nagybögö29.04.2020, 14:09:15 05.11.2008, 22:52:39 3150318
Unterricht in Hannover HannoBass28.04.2020, 18:11:57 27.04.2020, 13:20:41 2423
Duzen vs. Siezen Ste-Fan25.04.2020, 12:25:47 11.04.2020, 00:22:57 8975
Meine Saitenmatrix und mein Channel hervejeanne24.04.2020, 15:24:23 03.04.2020, 18:59:12 8960
Position Saitenhalter Basskl23.04.2020, 21:05:12 16.04.2020, 13:57:49 11794
Tempera Strings (Gerold Genssler) martinthi20.04.2020, 15:31:45 11.04.2020, 22:55:35 3858
einstellbarer Stimmstock Klangzauberstab mattes20.04.2020, 14:55:44 16.10.2019, 13:20:11 8914438
Preis für gebrauchten Thomann 1/8 Bass parisa19.04.2020, 22:54:57 10.04.2020, 22:15:27 12789
Meta Hodos Bassta705.04.2020, 17:12:18 28.03.2020, 19:14:49 61289
geeigneter Amp für Akustikbass charleszell02.04.2020, 12:26:16 03.06.2008, 00:29:02 3332090
Universallösung Verstärker und Boxen für E-und Kontrabass tippit4902.04.2020, 12:01:49 12.07.2019, 21:02:18 62943
Play along 16fuss31.03.2020, 17:51:20 31.03.2020, 14:23:12 2599
J.Wilfer Kontrabass ?!Wertschätzung?! Sabina27.03.2020, 10:42:31 21.02.2006, 13:42:04 920051
wilfert Bass Klaus Behrends27.03.2020, 09:45:26 19.02.2004, 18:45:33 725107
Bose L1 Frank27.03.2020, 09:22:07 08.02.2020, 14:46:01 31128
Soll ich mit Kontrabass anfangen? Michi6225.03.2020, 21:56:02 31.03.2019, 17:48:57 247138
Kontrabass kaufen Basst!25.03.2020, 21:55:32 22.02.2020, 12:04:41 161995
QSC 12.2 denisdn19.03.2020, 22:55:45 16.03.2020, 18:01:13 4975
Meine "Billig-Kontrabass" Erfahrungen KaschiSoeth09.03.2020, 10:37:43 07.03.2020, 19:12:29 21462
blackwood Griffbrett hauptimann07.03.2020, 14:19:13 08.06.2017, 13:05:51 815610
Kontrabass " unterschlagen " koelbljoachim01.03.2020, 10:35:36 29.01.2013, 20:30:36 1329724
Bassbogen H.R.Pfretzschner gritzka27.02.2020, 18:01:56 20.02.2020, 14:59:10 31008
Komressor?! Ja Bitte! Artsimpson24.02.2020, 01:30:38 20.02.2020, 12:15:15 1910
Leatherwood bespoke rosin Bassist1421.02.2020, 01:04:50 01.09.2019, 20:07:54 102948
Kolophonium-Frust nagybögö20.02.2020, 11:59:53 19.12.2015, 13:04:28 4020325
Noten Hindemith Orchesterstimmung HolgerSt17.02.2020, 18:42:28 22.02.2006, 21:06:54 1315378
Mélâss Methode Bassta716.02.2020, 16:56:54 15.02.2020, 15:09:14 3857
Welche Saiten sind das? double_is_bässer24.01.2020, 17:02:38 10.01.2020, 22:10:52 21263
Welche Hybrid Saiten für Swing + bisschen Arco? Axolotl22.01.2020, 16:39:43 01.01.2020, 21:46:20 151998
Kleine Kunststoff Hülse an Spirocore Mittel D-Saite Grandefuturo16.01.2020, 23:31:15 08.01.2020, 00:17:58 91661
Sololiteratur in Orchesterstimmung? Hen16.01.2020, 13:45:47 12.01.2012, 11:22:22 542947
Händlerverkauf auf Kommission im Südwesten Bassist_081513.01.2020, 15:38:53 13.01.2020, 14:12:57 1815
Bassbauer im Raum Würzburg-Bamberg? don6713.01.2020, 10:24:59 07.01.2020, 17:26:51 2943
Saiten und Griffbrett reinigen Basst!10.01.2020, 17:31:55 05.10.2019, 12:42:59 132479
Gewerbliche Anbieter im Marktplatz MoBass07.01.2020, 19:02:44 07.01.2020, 19:02:44 0824
Electric Upright Bass MK werner05.01.2020, 15:29:36 05.01.2020, 11:30:27 1987
der ideale Kontrabass-Stuhl streichbass24.12.2019, 12:20:21 18.03.2006, 22:17:41 3545839
Sammelsurium dufter Bassvideos (1 2 3) HendrikNehls18.12.2019, 01:07:36 28.01.2009, 01:54:06 250289655
Helicore Orchestra tauschen pedalist2916.12.2019, 15:48:03 15.12.2019, 10:13:35 41555
Venta-Luftbefeuchter HartKor14.12.2019, 21:58:15 10.12.2019, 22:01:53 31128
Kontrabass: tragen oder ziehen? turgur04.12.2019, 20:31:10 28.11.2019, 16:52:23 131958
Basslehrertreffen Ste-Fan03.12.2019, 11:15:25 07.11.2019, 19:43:05 11527
Instrumentenversicherung fabfourstrings29.11.2019, 12:15:53 10.06.2012, 16:54:36 2448842
7.12. save the date: 7. Arbeitstreffen HanseBass Ste-Fan29.11.2019, 10:22:20 07.11.2019, 19:38:32 31280
Kontrabass einschätzen martinthi28.11.2019, 16:55:41 25.11.2019, 22:46:50 21472
Infiziert... Anuschka07.11.2019, 16:44:50 07.11.2019, 00:40:20 11512
Anytune auf altem iOS oder OSX installieren Pizzicato8730.10.2019, 17:27:31 30.10.2019, 17:27:31 01049
Betrug auf GEBA? Baumkruste25.10.2019, 12:28:49 06.01.2017, 19:55:06 5127284
konische Reibahle 1/17 ausleihen? bassknecht20.10.2019, 15:46:12 04.12.2009, 16:02:16 1045672
KB in Lissabon???? moesate11.10.2019, 20:02:11 11.10.2019, 14:50:48 11642
Bögen unter 1000€ TV05.10.2019, 11:57:33 28.09.2019, 12:00:20 42255
Beethoven 6. Gewitter-Sturm Kontrafrank04.10.2019, 11:54:02 02.10.2019, 15:23:13 81562
Transport 2er 3/4 Bässe in einem peugeot Kastenwagen Milan_Boxberg25.09.2019, 02:53:17 23.09.2019, 18:16:10 14217
Lee Rocker Pickup? thias05.09.2019, 11:32:20 12.07.2019, 16:09:55 42340
Sperrholzbass -> kann der was? McSchwaiger03.09.2019, 20:12:20 13.08.2019, 17:15:32 42372
Noten gesucht: "Air" von Egilsson Ste-Fan03.09.2019, 12:11:08 03.09.2019, 12:11:08 01314
Bass leihen PalmaKunkel02.09.2019, 15:57:09 02.09.2019, 15:57:09 01555
Pirastro Perpetuals Frank29.08.2019, 15:33:08 17.08.2019, 12:28:21 73063
Abitur mit Kontrabass Ste-Fan26.08.2019, 11:54:40 21.08.2019, 23:17:54 21861
Genssler AP 2019 denisdn24.08.2019, 15:22:20 24.08.2019, 08:41:20 21805
Alter Kontrabass mit sehr viel Holzwurm mlbass23.08.2019, 08:28:46 21.08.2019, 09:35:07 32330
ErgoBass?! Ste-Fan15.08.2019, 21:39:08 13.08.2019, 08:30:23 31824
Ständer für Yamaha SLB 200 Basskl13.08.2019, 21:28:16 06.08.2019, 21:28:49 21771
Georg Vance - Progressive Repertoire Ste-Fan13.08.2019, 08:39:27 31.07.2019, 01:00:35 31991
Orchesterstudien Kontrabass Friedrich Hofmeister gerrits31.07.2019, 00:56:00 29.07.2019, 20:50:44 21721
Alte leichte Bögen Jean30.07.2019, 11:38:23 13.04.2018, 22:13:40 38587
Krivo Pickup thias26.07.2019, 12:19:21 12.07.2019, 17:35:19 52382
Halbmassiv: Tonabnahme? thias16.07.2019, 14:55:49 23.06.2019, 22:09:38 82939
Qualitätsfrage: E.Wilfer Nr.10 oder GEWA Rubner Nr.62? Uli09.07.2019, 13:49:23 18.03.2018, 12:02:40 2111585
Kontrabass mieten + Unterricht in Kiel Sabine8725.06.2019, 08:06:05 21.03.2018, 11:17:56 1417737
Aktivboxen denisdn09.06.2019, 19:10:39 09.06.2019, 12:47:45 32750
Feuchte Hände Dave05.06.2019, 13:12:21 20.06.2002, 00:51:25 913549
Einladung 6.Arbeitstreffen HanseBass 25.5.19 Ste-Fan29.05.2019, 23:51:42 08.05.2019, 08:57:39 42701
Kontrabass Live Now! Ste-Fan29.05.2019, 23:50:49 15.05.2019, 23:17:07 12646
Silberfaden Bogen FJTBass29.05.2019, 23:48:19 28.05.2019, 01:05:05 63214
Musikschulkongress: Kontrabassunterricht für Kinder Ste-Fan28.05.2019, 23:04:39 25.04.2019, 23:20:00 42781
Alter Bass unbekannter Hersteller FretlessFrankie28.05.2019, 13:41:02 27.05.2019, 16:21:45 22611
Kräftige E-Saite denisdn20.05.2019, 14:28:10 18.05.2019, 09:04:05 43200
Quelle für Piezo-Film-Elemente Dieter Michel20.05.2019, 09:53:29 19.04.2005, 00:54:33 417846
Darmsaite gerissen subbass18.05.2019, 19:02:24 05.06.2010, 12:20:42 1325054
Welchen Bass spielt der Wood Brother? Ste-Fan17.05.2019, 09:41:53 16.05.2019, 16:57:20 32397

Seite: 1 - 2 - 3 - 4 - 5 - 6 - 7 - 8 - 9 - 10 - 11 - 12 - 13 - 14 - 15 - 16 - 17 - 18 - 19 - 20 - 21 - 22 - 23 - 24 - 25 - 26 - 27 - 28 - 29 - 30 - 31 - 32 - 33 - 34 - 35 - 36 - 37 - 38 - 39 - 40 - 41 - 42 - 43


Nur angemeldete Benutzer dürfen Beiträge schreiben. Bitte hier einloggen: LogIn



Zuletzt aktualisiert von Besucher am 27.05.2020, 20:54:52.